Showing default

TBA - TO BE ASSIGNED, 64488

Orbit data source: Space-Track

TBA - TO BE ASSIGNED named objects are likely recently launched satellites that are being tracked but not necessarily identified.

Loading next visibility...
Identifier
64488, 2025-133S
Orbit
LEO
Last TLE update
10 hours ago
Origin
Manufacturer
SpaceX/Seattle
Mission
Operational spacecraft
Bus & Motor
STARLINK V2MO, Unknown motor
Mass
575 kg wet, ~530 kg dry
Launch date (UTC)
2025-06-23 (1 week ago)
Launch vehicle
FALCON 9
Launch site
Air Force Eastern Test Range (AFETR)
Object type
Payload
Rocket body
Debris
Shape & HBR
Unknown
Radar Cross Section
RCS unknown

Expand to show TLE details & history

TLE from 10 hours ago
0 STARLINK-34217
1 64488U 25133S   25181.91668981 -.01161664  00000-0 -46740-2 0  9999
2 64488  53.1554 219.1945 0001004  77.0501 133.3118 15.88398626  2346
Epoch: 2025-06-30T22:00Z
TLE epoch observation values (Epoch: 2025-06-30T22:00:01.999Z)
Latitude
-24.06546°
Longitude
169.40241°
Altitude
314.179 km
Speed
7.719 km/s
True Right ascension
03h 54m 31s
True Declination
-23° 55' 45"
Sunlit
Object was in daylight at epoch
Visualization orbit readout
Latitude
-5.55058°
Longitude
151.90789°
Altitude
311.958 km
Speed
7.722 km/s
Apparent Right ascension
04h 56m 12s
Apparent Declination
-27° 55' 44"
Sunlit
Object is in daylight
Visualization observer readout
Local Sidereal Time
20:06:40
Azimuth
87.989° E
Elevation
-49.229°
Doppler factor
1
Orbital elements
Apogee altitude
307.707 km
Perigee altitude
306.364 km
Semi-major axis
6,685.173 km
Eccentricity
0.0001
Inclination
53.1554°
RAAN
219.1945°
Arg. of periapsis
77.0501°
True anomaly
Unknown
Mean anomaly
133.3118°
Eccentric anomaly
Unknown
Mean motion
3.97077 °/min
Orbital period
90.66 mins
BSTAR
-0.004674
Loading maneuver chart data...
Loading SW <> Apogee altitude chart data...

TBA - TO BE ASSIGNED Visibility forecast

Observer location: undefined°, undefined°

Span
Click to sort rows by Start time (UTC) header in descending order
Start Az.
Max El. time (UTC)
Max El. Az.
Max El.
End time (UTC)
End Az.
4 mins2025-07-02 05:03:33.150Z230.894° WSW2025-07-02 05:05:33.150Z44.573° NE40.532°2025-07-02 05:07:33.150Z49.252° ENE
|